Time,TemperatureF,DewpointF,PressureIn,WindDirection,WindDirectionDegrees,WindSpeedMPH,WindSpeedGustMPH,Humidity,HourlyPrecipIn,Conditions,Clouds,dailyrainin,SoftwareType,DateUTC
2013-01-09 00:02:00,44.0,36.0,30.14,South,171,2.0,5.0,72,0.00,,,0.00,,2013-01-09 06:02:00,
2013-01-09 00:12:00,44.0,36.0,30.14,South,171,2.0,5.0,72,0.00,,,0.00,,2013-01-09 06:12:00,
2013-01-09 00:22:00,45.0,35.0,30.14,South,171,2.0,5.0,68,0.00,,,0.00,,2013-01-09 06:22:00,
2013-01-09 00:32:00,46.0,36.0,30.14,South,172,2.0,6.0,68,0.00,,,0.00,,2013-01-09 06:32:00,
2013-01-09 00:42:00,46.0,36.0,30.14,South,172,2.0,6.0,68,0.00,,,0.00,,2013-01-09 06:42:00,
2013-01-09 00:52:00,46.0,36.0,30.14,South,172,5.0,6.0,68,0.00,,,0.00,,2013-01-09 06:52:00,
2013-01-09 01:02:00,47.0,37.0,30.15,South,174,2.0,6.0,69,0.00,,,0.00,,2013-01-09 07:02:00,
2013-01-09 01:12:00,47.0,37.0,30.15,South,174,2.0,6.0,69,0.00,,,0.00,,2013-01-09 07:12:00,
2013-01-09 01:22:00,47.0,37.0,30.14,South,174,1.0,6.0,67,0.00,,,0.00,,2013-01-09 07:22:00,
2013-01-09 01:32:00,47.0,38.0,30.15,South,174,2.0,4.0,72,0.00,,,0.00,,2013-01-09 07:32:00,
2013-01-09 01:42:00,47.0,38.0,30.15,South,174,2.0,4.0,72,0.00,,,0.00,,2013-01-09 07:42:00,
2013-01-09 01:52:00,46.0,38.0,30.16,South,174,2.0,4.0,73,0.00,,,0.00,,2013-01-09 07:52:00,
2013-01-09 02:02:00,46.0,38.0,30.16,South,174,2.0,4.0,73,0.00,,,0.00,,2013-01-09 08:02:00,
2013-01-09 02:12:00,46.0,38.0,30.16,South,174,2.0,4.0,73,0.00,,,0.00,,2013-01-09 08:12:00,
2013-01-09 02:22:00,47.0,39.0,30.16,South,174,0.0,3.0,73,0.00,,,0.00,,2013-01-09 08:22:00,
2013-01-09 02:32:00,47.0,38.0,30.17,South,174,0.0,2.0,72,0.00,,,0.00,,2013-01-09 08:32:00,
2013-01-09 02:42:00,47.0,38.0,30.17,South,174,0.0,2.0,72,0.00,,,0.00,,2013-01-09 08:42:00,
2013-01-09 02:52:00,47.0,38.0,30.17,South,174,0.0,2.0,72,0.00,,,0.00,,2013-01-09 08:52:00,
2013-01-09 03:02:00,47.0,39.0,30.17,South,174,1.0,2.0,73,0.00,,,0.00,,2013-01-09 09:02:00,
2013-01-09 03:12:00,47.0,39.0,30.17,South,174,1.0,2.0,73,0.00,,,0.00,,2013-01-09 09:12:00,
2013-01-09 03:22:00,47.0,40.0,30.18,South,174,1.0,2.0,77,0.00,,,0.00,,2013-01-09 09:22:00,
2013-01-09 03:32:00,47.0,41.0,30.18,South,174,3.0,3.0,78,0.00,,,0.00,,2013-01-09 09:32:00,
2013-01-09 03:42:00,47.0,41.0,30.18,South,174,3.0,3.0,78,0.00,,,0.00,,2013-01-09 09:42:00,
2013-01-09 03:53:00,47.0,42.0,30.18,South,175,2.0,3.0,82,0.00,,,0.00,,2013-01-09 09:53:00,
2013-01-09 04:02:00,48.0,44.0,30.18,SW,215,3.0,7.0,87,0.00,,,0.00,,2013-01-09 10:02:00,
2013-01-09 04:11:00,48.0,44.0,30.18,SW,215,3.0,7.0,87,0.00,,,0.00,,2013-01-09 10:11:00,
2013-01-09 04:22:00,48.0,45.0,30.17,SW,215,3.0,7.0,88,0.00,,,0.00,,2013-01-09 10:22:00,
2013-01-09 04:32:00,48.0,45.0,30.17,SW,215,2.0,8.0,88,0.00,,,0.00,,2013-01-09 10:32:00,
2013-01-09 04:42:00,48.0,45.0,30.17,SW,215,2.0,8.0,88,0.00,,,0.00,,2013-01-09 10:42:00,
2013-01-09 04:52:00,48.0,44.0,30.17,SW,215,0.0,8.0,87,0.00,,,0.00,,2013-01-09 10:52:00,
2013-01-09 05:02:00,47.0,44.0,30.17,SW,215,1.0,5.0,88,0.00,,,0.00,,2013-01-09 11:02:00,
2013-01-09 05:12:00,47.0,44.0,30.17,SW,215,1.0,5.0,88,0.00,,,0.00,,2013-01-09 11:12:00,
2013-01-09 05:22:00,47.0,44.0,30.17,SW,215,0.0,5.0,89,0.00,,,0.00,,2013-01-09 11:22:00,
2013-01-09 05:32:00,47.0,44.0,30.17,SW,215,0.0,3.0,88,0.00,,,0.00,,2013-01-09 11:32:00,
2013-01-09 05:42:00,47.0,44.0,30.17,SW,215,0.0,3.0,88,0.00,,,0.00,,2013-01-09 11:42:00,
2013-01-09 05:52:00,47.0,43.0,30.18,SW,215,0.0,3.0,87,0.00,,,0.00,,2013-01-09 11:52:00,
2013-01-09 06:03:00,47.0,44.0,30.19,SW,215,0.0,2.0,88,0.00,,,0.00,,2013-01-09 12:03:00,
2013-01-09 06:12:00,47.0,44.0,30.19,SW,215,0.0,2.0,88,0.00,,,0.00,,2013-01-09 12:12:00,
2013-01-09 06:23:00,47.0,44.0,30.20,SW,215,0.0,2.0,88,0.00,,,0.00,,2013-01-09 12:23:00,
2013-01-09 06:33:00,47.0,44.0,30.20,SW,215,0.0,0.0,89,0.01,,,0.01,,2013-01-09 12:33:00,
2013-01-09 06:42:00,47.0,44.0,30.20,SW,215,0.0,0.0,89,0.01,,,0.01,,2013-01-09 12:42:00,
2013-01-09 06:52:00,47.0,44.0,30.21,SW,215,0.0,0.0,90,0.01,,,0.01,,2013-01-09 12:52:00,
2013-01-09 07:02:00,47.0,45.0,30.23,North,349,0.0,1.0,92,0.02,,,0.02,,2013-01-09 13:02:00,
2013-01-09 07:12:00,47.0,45.0,30.23,North,349,0.0,1.0,92,0.02,,,0.02,,2013-01-09 13:12:00,
2013-01-09 07:22:00,47.0,45.0,30.25,North,349,0.0,1.0,94,0.02,,,0.02,,2013-01-09 13:22:00,
2013-01-09 07:33:00,47.0,45.0,30.26,North,349,1.0,7.0,94,0.03,,,0.04,,2013-01-09 13:33:00,
2013-01-09 07:42:00,47.0,45.0,30.26,North,349,1.0,7.0,94,0.03,,,0.04,,2013-01-09 13:42:00,
2013-01-09 07:52:00,47.0,46.0,30.27,North,349,0.0,7.0,95,0.03,,,0.04,,2013-01-09 13:52:00,
2013-01-09 08:03:00,47.0,46.0,30.28,North,349,0.0,5.0,95,0.03,,,0.05,,2013-01-09 14:03:00,
2013-01-09 08:12:00,47.0,46.0,30.29,NNE,13,2.0,5.0,96,0.03,,,0.05,,2013-01-09 14:12:00,
2013-01-09 08:22:00,47.0,46.0,30.29,NNE,13,2.0,5.0,96,0.03,,,0.05,,2013-01-09 14:22:00,
2013-01-09 08:33:00,46.0,45.0,30.30,NNE,16,2.0,6.0,96,0.01,,,0.05,,2013-01-09 14:33:00,
2013-01-09 08:43:00,46.0,45.0,30.30,NNE,16,2.0,6.0,96,0.01,,,0.05,,2013-01-09 14:43:00,
2013-01-09 08:53:00,46.0,44.0,30.31,NNE,16,2.0,6.0,94,0.01,,,0.05,,2013-01-09 14:53:00,
2013-01-09 09:03:00,46.0,45.0,30.31,NNE,16,0.0,5.0,96,0.00,,,0.05,,2013-01-09 15:03:00,
2013-01-09 09:12:00,46.0,45.0,30.31,NNE,16,0.0,5.0,96,0.00,,,0.05,,2013-01-09 15:12:00,
2013-01-09 09:22:00,46.0,45.0,30.31,NNE,16,0.0,5.0,96,0.00,,,0.05,,2013-01-09 15:22:00,
2013-01-09 09:33:00,47.0,46.0,30.32,NNE,16,1.0,2.0,96,0.00,,,0.05,,2013-01-09 15:33:00,
2013-01-09 09:42:00,47.0,46.0,30.32,NNE,16,1.0,2.0,96,0.00,,,0.05,,2013-01-09 15:42:00,
2013-01-09 09:53:00,47.0,46.0,30.33,NNE,16,2.0,2.0,97,0.00,,,0.05,,2013-01-09 15:53:00,
2013-01-09 10:03:00,47.0,46.0,30.33,NNE,16,0.0,3.0,98,0.01,,,0.06,,2013-01-09 16:03:00,
2013-01-09 10:12:00,47.0,46.0,30.33,NNE,16,0.0,3.0,98,0.01,,,0.06,,2013-01-09 16:12:00,
2013-01-09 10:22:00,47.0,-7.0,30.32,ENE,68,5.0,5.0,10,0.01,,,0.06,,2013-01-09 16:22:00,
2013-01-09 10:33:00,47.0,46.0,30.32,East,86,3.0,7.0,98,0.01,,,0.06,,2013-01-09 16:33:00,
2013-01-09 10:42:00,47.0,46.0,30.32,East,86,3.0,7.0,98,0.01,,,0.06,,2013-01-09 16:42:00,
2013-01-09 10:52:00,47.0,46.0,30.32,East,86,3.0,7.0,98,0.01,,,0.06,,2013-01-09 16:52:00,
2013-01-09 11:02:00,48.0,48.0,30.31,East,88,4.0,8.0,99,0.00,,,0.06,,2013-01-09 17:02:00,
2013-01-09 11:12:00,48.0,48.0,30.31,East,88,4.0,8.0,99,0.00,,,0.06,,2013-01-09 17:12:00,
2013-01-09 11:23:00,48.0,48.0,30.31,East,88,4.0,8.0,99,0.00,,,0.06,,2013-01-09 17:23:00,
2013-01-09 11:32:00,49.0,48.0,30.30,SE,128,5.0,7.0,96,0.00,,,0.06,,2013-01-09 17:32:00,
2013-01-09 11:43:00,49.0,48.0,30.30,SE,128,5.0,7.0,96,0.00,,,0.06,,2013-01-09 17:43:00,
2013-01-09 11:53:00,50.0,49.0,30.29,SE,124,3.0,7.0,95,0.00,,,0.06,,2013-01-09 17:53:00,
2013-01-09 12:03:00,50.0,49.0,30.29,SE,124,3.0,7.0,95,0.00,,,0.06,,2013-01-09 18:03:00,
2013-01-09 12:12:00,50.0,49.0,30.29,SE,124,3.0,7.0,95,0.00,,,0.06,,2013-01-09 18:12:00,
2013-01-09 12:23:00,50.0,49.0,30.29,SE,124,3.0,7.0,95,0.00,,,0.06,,2013-01-09 18:23:00,
2013-01-09 12:33:00,52.0,49.0,30.27,SSE,148,6.0,7.0,90,0.00,,,0.06,,2013-01-09 18:33:00,
2013-01-09 12:43:00,52.0,49.0,30.27,SSE,148,6.0,7.0,90,0.00,,,0.06,,2013-01-09 18:43:00,
2013-01-09 12:53:00,52.0,49.0,30.26,ESE,113,3.0,7.0,88,0.00,,,0.06,,2013-01-09 18:53:00,
2013-01-09 13:03:00,53.0,49.0,30.25,East,92,5.0,8.0,85,0.00,,,0.06,,2013-01-09 19:03:00,
2013-01-09 13:12:00,53.0,49.0,30.25,East,92,5.0,8.0,85,0.00,,,0.06,,2013-01-09 19:12:00,
2013-01-09 13:22:00,53.0,48.0,30.25,NE,55,5.0,8.0,83,0.00,,,0.06,,2013-01-09 19:22:00,
2013-01-09 13:33:00,53.0,48.0,30.25,ENE,64,4.0,10.0,83,0.00,,,0.06,,2013-01-09 19:33:00,
2013-01-09 13:43:00,53.0,48.0,30.25,ENE,64,4.0,10.0,83,0.00,,,0.06,,2013-01-09 19:43:00,
2013-01-09 13:52:00,54.0,49.0,30.25,ESE,112,3.0,10.0,82,0.00,,,0.06,,2013-01-09 19:52:00,
2013-01-09 14:02:00,53.0,48.0,30.26,SE,124,5.0,8.0,84,0.00,,,0.06,,2013-01-09 20:02:00,
2013-01-09 14:12:00,53.0,48.0,30.26,SE,124,5.0,8.0,84,0.00,,,0.06,,2013-01-09 20:12:00,
2013-01-09 14:22:00,53.0,47.0,30.26,SE,133,7.0,8.0,81,0.00,,,0.06,,2013-01-09 20:22:00,
2013-01-09 14:33:00,53.0,47.0,30.26,SE,130,3.0,10.0,80,0.00,,,0.06,,2013-01-09 20:33:00,
2013-01-09 14:42:00,53.0,47.0,30.26,SE,130,3.0,10.0,80,0.00,,,0.06,,2013-01-09 20:42:00,
2013-01-09 14:52:00,54.0,48.0,30.27,ESE,106,6.0,10.0,81,0.00,,,0.06,,2013-01-09 20:52:00,
2013-01-09 15:03:00,54.0,48.0,30.27,ESE,106,6.0,10.0,81,0.00,,,0.06,,2013-01-09 21:03:00,
2013-01-09 15:12:00,54.0,48.0,30.27,ESE,106,6.0,10.0,81,0.00,,,0.06,,2013-01-09 21:12:00,
2013-01-09 15:22:00,54.0,47.0,30.27,ESE,106,4.0,8.0,76,0.00,,,0.06,,2013-01-09 21:22:00,
2013-01-09 15:33:00,54.0,48.0,30.27,ESE,121,5.0,10.0,79,0.00,,,0.06,,2013-01-09 21:33:00,
2013-01-09 15:43:00,54.0,48.0,30.27,ESE,121,5.0,10.0,79,0.00,,,0.06,,2013-01-09 21:43:00,
2013-01-09 15:52:00,54.0,47.0,30.27,ESE,121,3.0,10.0,76,0.00,,,0.06,,2013-01-09 21:52:00,
2013-01-09 16:03:00,53.0,47.0,30.28,ESE,119,2.0,11.0,79,0.00,,,0.06,,2013-01-09 22:03:00,
2013-01-09 16:12:00,53.0,47.0,30.28,ESE,119,2.0,11.0,79,0.00,,,0.06,,2013-01-09 22:12:00,
2013-01-09 16:22:00,53.0,47.0,30.28,SE,128,6.0,11.0,79,0.00,,,0.06,,2013-01-09 22:22:00,
2013-01-09 16:33:00,53.0,47.0,30.27,ESE,121,2.0,10.0,80,0.00,,,0.06,,2013-01-09 22:33:00,
2013-01-09 16:42:00,53.0,47.0,30.27,ESE,121,2.0,10.0,80,0.00,,,0.06,,2013-01-09 22:42:00,
2013-01-09 16:52:00,52.0,46.0,30.28,SE,124,3.0,10.0,81,0.00,,,0.06,,2013-01-09 22:52:00,
2013-01-09 17:02:00,52.0,47.0,30.28,ENE,61,3.0,7.0,82,0.00,,,0.06,,2013-01-09 23:02:00,
2013-01-09 17:12:00,52.0,47.0,30.28,ENE,62,5.0,7.0,82,0.00,,,0.06,,2013-01-09 23:12:00,
2013-01-09 17:22:00,52.0,47.0,30.28,ENE,62,5.0,7.0,82,0.00,,,0.06,,2013-01-09 23:22:00,
2013-01-09 17:33:00,51.0,46.0,30.29,ENE,62,5.0,7.0,84,0.00,,,0.06,,2013-01-09 23:33:00,
2013-01-09 17:43:00,51.0,46.0,30.29,ENE,62,5.0,7.0,84,0.00,,,0.06,,2013-01-09 23:43:00,
2013-01-09 17:52:00,50.0,46.0,30.29,ENE,64,2.0,7.0,85,0.00,,,0.06,,2013-01-09 23:52:00,
2013-01-09 18:03:00,50.0,46.0,30.29,ENE,64,2.0,7.0,85,0.00,,,0.06,,2013-01-10 00:03:00,
2013-01-09 18:12:00,50.0,46.0,30.29,ENE,64,2.0,7.0,85,0.00,,,0.06,,2013-01-10 00:12:00,
2013-01-09 18:22:00,50.0,46.0,30.31,ENE,64,3.0,6.0,87,0.00,,,0.06,,2013-01-10 00:22:00,
2013-01-09 18:33:00,51.0,47.0,30.31,ENE,62,3.0,7.0,86,0.00,,,0.06,,2013-01-10 00:33:00,
2013-01-09 18:43:00,51.0,47.0,30.31,ENE,62,3.0,7.0,86,0.00,,,0.06,,2013-01-10 00:43:00,
2013-01-09 18:53:00,50.0,46.0,30.31,ENE,61,5.0,7.0,86,0.00,,,0.06,,2013-01-10 00:53:00,
2013-01-09 19:02:00,50.0,46.0,30.31,ENE,61,5.0,7.0,86,0.00,,,0.06,,2013-01-10 01:02:00,
2013-01-09 19:12:00,50.0,46.0,30.31,ENE,61,5.0,7.0,86,0.00,,,0.06,,2013-01-10 01:12:00,
2013-01-09 19:22:00,51.0,47.0,30.32,ENE,64,5.0,7.0,87,0.00,,,0.06,,2013-01-10 01:22:00,
2013-01-09 19:33:00,51.0,47.0,30.32,ENE,59,6.0,9.0,85,0.00,,,0.06,,2013-01-10 01:33:00,
2013-01-09 19:43:00,51.0,47.0,30.32,ENE,59,6.0,9.0,85,0.00,,,0.06,,2013-01-10 01:43:00,
2013-01-09 19:52:00,50.0,46.0,30.33,ENE,61,3.0,9.0,87,0.00,,,0.06,,2013-01-10 01:52:00,
2013-01-09 20:03:00,50.0,46.0,30.33,ENE,61,6.0,8.0,86,0.00,,,0.06,,2013-01-10 02:03:00,
2013-01-09 20:12:00,50.0,46.0,30.33,ENE,61,6.0,8.0,86,0.00,,,0.06,,2013-01-10 02:12:00,
2013-01-09 20:22:00,50.0,46.0,30.32,ENE,62,3.0,8.0,86,0.00,,,0.06,,2013-01-10 02:22:00,
2013-01-09 20:32:00,50.0,46.0,30.32,ENE,61,5.0,10.0,86,0.00,,,0.06,,2013-01-10 02:32:00,
2013-01-09 20:42:00,50.0,46.0,30.32,ENE,61,5.0,10.0,86,0.00,,,0.06,,2013-01-10 02:42:00,
2013-01-09 20:52:00,50.0,46.0,30.32,ENE,61,5.0,10.0,86,0.00,,,0.06,,2013-01-10 02:52:00,
2013-01-09 21:02:00,50.0,46.0,30.33,ENE,65,5.0,8.0,86,0.00,,,0.06,,2013-01-10 03:02:00,
2013-01-09 21:12:00,50.0,46.0,30.33,ENE,65,5.0,8.0,86,0.00,,,0.06,,2013-01-10 03:12:00,
2013-01-09 21:22:00,50.0,46.0,30.33,ENE,65,5.0,8.0,86,0.00,,,0.06,,2013-01-10 03:22:00,
2013-01-09 21:33:00,50.0,46.0,30.33,East,80,7.0,11.0,85,0.00,,,0.06,,2013-01-10 03:33:00,
2013-01-09 21:42:00,50.0,46.0,30.33,East,80,7.0,11.0,85,0.00,,,0.06,,2013-01-10 03:42:00,
2013-01-09 21:53:00,50.0,45.0,30.33,ENE,66,8.0,11.0,83,0.00,,,0.06,,2013-01-10 03:53:00,
2013-01-09 22:02:00,50.0,45.0,30.32,ENE,71,7.0,12.0,84,0.00,,,0.06,,2013-01-10 04:02:00,
2013-01-09 22:12:00,50.0,45.0,30.32,ENE,71,7.0,12.0,84,0.00,,,0.06,,2013-01-10 04:12:00,
2013-01-09 22:22:00,50.0,45.0,30.31,ENE,73,7.0,12.0,84,0.00,,,0.06,,2013-01-10 04:22:00,
2013-01-09 22:32:00,50.0,45.0,30.32,ENE,78,9.0,12.0,84,0.00,,,0.06,,2013-01-10 04:32:00,
2013-01-09 22:42:00,50.0,45.0,30.32,ENE,78,9.0,12.0,84,0.00,,,0.06,,2013-01-10 04:42:00,
2013-01-09 22:52:00,50.0,45.0,30.31,ENE,78,8.0,12.0,83,0.00,,,0.06,,2013-01-10 04:52:00,
2013-01-09 23:03:00,50.0,45.0,30.31,East,96,13.0,16.0,82,0.00,,,0.06,,2013-01-10 05:03:00,
2013-01-09 23:12:00,50.0,45.0,30.31,East,96,13.0,16.0,82,0.00,,,0.06,,2013-01-10 05:12:00,
2013-01-09 23:22:00,50.0,44.0,30.32,East,83,6.0,16.0,81,0.00,,,0.06,,2013-01-10 05:22:00,
2013-01-09 23:33:00,50.0,45.0,30.32,ENE,64,5.0,14.0,84,0.00,,,0.06,,2013-01-10 05:33:00,
2013-01-09 23:42:00,50.0,45.0,30.32,ENE,64,5.0,14.0,84,0.00,,,0.06,,2013-01-10 05:42:00,
2013-01-09 23:52:00,49.0,45.0,30.32,ESE,110,6.0,14.0,87,0.00,,,0.06,,2013-01-10 05:52:00,